Temperature
-2 -3 -4 -4 -6 -7 -8 -9 -10 -9 -8 -7 -7 -7 -8 -8 -9 -9 -9 -9 -9 -9 -9 -9 -9 -8 -8 -7 -7 -7 -6 -6 -5 -4 -3 -1 1 3
-2 -3 -4 -4 -6 -7 -8 -8 -9 -10 -10 -8 -8 -8 -8 -8 -9 -9 -9 -9 -9 -9 -9 -9 -9 -8 -8 -8 -8 -7 -7 -6 -5 -5 -4 -2 -0 2
-2 -3 -3 -4 -6 -6 -8 -8 -9 -10 -10 -9 -8 -8 -8 -8 -9 -9 -9 -9 -9 -9 -9 -9 -9 -9 -9 -8 -8 -7 -7 -6 -6 -5 -4 -3 -2 0
-2 -3 -3 -4 -5 -6 -7 -8 -9 -9 -10 -10 -9 -9 -9 -9 -9 -9 -9 -9 -9 -9 -9 -9 -9 -9 -9 -9 -8 -8 -7 -7 -6 -6 -5 -4 -3 -1
-2 -3 -3 -5 -5 -6 -7 -8 -9 -9 -10 -9 -9 -9 -9 -9 -9 -9 -9 -9 -9 -9 -9 -9 -9 -9 -9 -9 -9 -8 -8 -7 -6 -6 -5 -5 -4 -2
-3 -3 -4 -4 -5 -6 -7 -8 -9 -9 -9 -9 -9 -9 -8 -8 -8 -9 -9 -9 -9 -9 -9 -9 -10 -10 -9 -9 -9 -9 -8 -7 -7 -6 -5 -5 -4 -3
-3 -3 -4 -4 -5 -6 -7 -7 -8 -8 -8 -8 -8 -8 -8 -8 -8 -8 -9 -9 -9 -9 -9 -10 -10 -10 -10 -10 -9 -9 -9 -8 -7 -6 -5 -5 -4 -3
-3 -3 -4 -4 -5 -6 -7 -8 -8 -8 -8 -8 -8 -8 -8 -8 -8 -9 -9 -9 -9 -9 -10 -10 -10 -10 -10 -10 -9 -9 -9 -8 -7 -6 -5 -4 -4 -3
-4 -4 -4 -4 -5 -6 -6 -8 -8 -8 -8 -8 -8 -8 -8 -8 -9 -9 -9 -9 -9 -10 -10 -10 -10 -10 -10 -10 -10 -9 -9 -8 -7 -6 -5 -4 -4 -3
-4 -4 -5 -5 -5 -6 -7 -8 -8 -8 -8 -8 -8 -9 -9 -9 -9 -9 -9 -10 -10 -10 -10 -10 -10 -10 -10 -10 -10 -9 -9 -8 -7 -6 -5 -4 -3 -2
-4 -5 -5 -5 -5 -7 -8 -8 -8 -8 -8 -8 -8 -8 -9 -9 -9 -10 -10 -11 -11 -11 -11 -11 -11 -11 -10 -10 -10 -9 -8 -8 -7 -6 -5 -4 -3 -2
-5 -5 -5 -5 -6 -7 -8 -8 -8 -8 -8 -8 -9 -9 -9 -10 -10 -11 -11 -12 -12 -11 -11 -11 -11 -11 -11 -10 -9 -9 -8 -7 -6 -5 -4 -3 -2 -2
-5 -5 -5 -5 -6 -7 -8 -8 -8 -8 -8 -9 -9 -9 -10 -10 -11 -11 -12 -12 -12 -12 -12 -12 -12 -11 -11 -11 -10 -9 -8 -7 -6 -5 -4 -3 -2 -2
-5 -5 -5 -5 -6 -7 -8 -8 -8 -9 -9 -9 -10 -10 -10 -10 -11 -11 -12 -12 -12 -12 -12 -12 -12 -12 -12 -11 -11 -10 -8 -7 -6 -5 -4 -2 -2 -1
-5 -5 -6 -6 -7 -8 -8 -8 -9 -9 -9 -10 -10 -10 -10 -11 -11 -12 -12 -12 -12 -12 -12 -12 -12 -12 -12 -12 -11 -10 -9 -7 -6 -5 -4 -3 -2 -1
-6 -6 -7 -7 -7 -7 -8 -8 -8 -9 -10 -10 -10 -11 -11 -11 -11 -12 -12 -12 -12 -12 -11 -12 -12 -12 -12 -11 -11 -10 -9 -8 -5 -5 -4 -3 -2 -1
-6 -6 -7 -7 -7 -8 -8 -8 -9 -9 -10 -10 -11 -11 -11 -11 -11 -12 -12 -12 -12 -12 -11 -11 -11 -11 -11 -11 -10 -10 -9 -7 -6 -4 -4 -3 -2 -1
-6 -6 -6 -7 -7 -8 -8 -8 -9 -9 -10 -10 -11 -11 -11 -11 -11 -12 -12 -12 -12 -12 -11 -11 -11 -11 -10 -9 -8 -8 -8 -7 -5 -4 -3 -3 -2 -1
-7 -7 -7 -7 -7 -8 -8 -8 -9 -9 -10 -10 -10 -11 -11 -11 -11 -12 -12 -12 -12 -12 -11 -11 -11 -11 -10 -9 -7 -6 -6 -5 -5 -4 -3 -3 -2 -1
-7 -7 -7 -7 -7 -8 -8 -8 -9 -9 -10 -10 -10 -11 -11 -11 -11 -12 -12 -12 -12 -12 -11 -11 -10 -10 -10 -9 -8 -6 -5 -5 -5 -4 -3 -2 -1 -0
-6 -6 -7 -7 -7 -8 -8 -8 -9 -9 -9 -10 -10 -11 -11 -11 -11 -11 -12 -12 -12 -11 -11 -10 -10 -10 -10 -9 -8 -6 -5 -5 -4 -4 -3 -2 -1 -0
-6 -6 -6 -7 -7 -8 -8 -8 -9 -9 -10 -10 -10 -11 -11 -11 -11 -11 -11 -12 -11 -11 -11 -10 -9 -9 -9 -9 -8 -6 -5 -4 -4 -3 -3 -2 -1 0
-6 -6 -7 -7 -7 -8 -8 -8 -9 -9 -10 -10 -10 -11 -11 -11 -11 -11 -11 -11 -11 -11 -11 -10 -10 -9 -9 -8 -7 -6 -5 -4 -4 -3 -2 -2 -1 0
Wind_Speed
16 16 14 13 12 13 13 13 14 16 18 20 16 16 17 18 22 22 23 28 31 33 35 36 37 38 38 39 39 39 38 38 37 36 36 35 31 26
13 15 15 13 12 13 13 13 14 15 17 17 17 18 18 18 24 24 25 30 33 34 35 36 37 37 38 38 38 38 37 37 36 35 35 34 31 26
16 16 17 16 13 13 13 14 14 15 18 20 18 19 21 21 20 22 24 24 25 32 34 36 37 37 37 37 37 37 36 35 34 33 33 32 31 27
18 17 18 14 17 15 14 16 15 16 18 22 21 19 22 22 22 22 20 21 23 30 34 36 37 37 37 36 35 35 34 33 33 31 31 31 31 28
17 17 17 17 17 16 16 16 15 15 17 19 21 19 19 19 21 21 22 20 21 26 30 32 33 34 34 34 34 33 32 31 31 30 29 29 29 27
17 17 17 17 18 18 16 17 17 17 18 18 19 19 19 20 18 18 18 17 18 18 22 25 29 32 33 33 32 31 30 29 29 28 27 27 27 26
17 17 18 20 22 19 15 16 16 16 16 16 18 18 18 17 16 16 18 18 19 17 18 18 18 18 19 23 25 27 27 27 27 26 26 26 26 25
17 16 17 20 23 26 28 27 24 19 18 18 18 19 21 20 18 17 18 19 20 16 16 18 17 17 17 16 21 25 25 26 26 26 26 25 25 24
17 15 14 15 19 15 20 24 24 27 27 21 22 22 22 21 21 22 21 21 21 17 17 19 17 18 17 17 26 26 27 27 27 26 26 25 24 24
17 17 16 15 15 15 15 16 18 19 20 18 18 20 20 20 19 19 19 20 20 18 17 18 17 17 16 16 23 26 27 27 27 26 26 25 24 23
17 16 17 16 19 20 16 17 19 16 19 24 25 25 28 28 23 17 17 17 18 16 13 14 16 15 16 16 18 23 24 25 26 26 25 24 23 21
14 15 19 19 19 19 16 16 17 15 14 16 18 19 18 20 23 16 14 15 16 15 12 11 13 11 10 11 10 10 12 17 21 24 25 24 22 15
11 11 11 18 19 19 18 15 17 16 15 15 14 14 13 12 12 12 12 13 15 15 12 10 11 12 12 12 11 10 9 8 10 14 20 23 23 18
11 10 10 15 16 18 15 16 19 18 12 12 13 13 13 13 12 13 14 14 15 17 16 15 13 13 13 14 12 9 9 8 7 9 10 16 20 22
11 14 14 15 15 13 14 16 15 11 10 11 12 13 12 13 13 13 14 13 15 15 16 17 15 14 13 14 13 11 10 7 7 6 7 9 11 13
13 14 16 15 11 11 12 10 8 8 9 10 12 12 12 12 12 12 12 11 11 12 12 14 15 15 14 14 13 12 10 7 5 5 4 7 9 11
10 7 7 7 8 7 7 7 7 7 8 9 10 11 12 12 12 11 11 11 11 12 10 8 10 12 14 13 12 12 11 10 9 7 5 6 9 11
12 8 8 8 8 7 7 7 7 7 8 9 10 11 11 12 12 12 11 11 11 11 10 9 8 7 8 11 16 14 11 9 7 7 6 6 9 11
12 9 8 8 7 7 6 7 7 7 8 8 10 10 11 11 12 12 11 11 11 11 10 9 8 8 9 8 7 17 13 9 7 6 7 7 8 10
10 9 8 8 7 6 6 6 7 7 7 8 9 10 10 11 11 12 11 12 11 11 10 9 8 8 9 8 6 4 15 11 7 6 6 6 7 7
10 9 8 7 6 6 6 6 7 7 8 9 9 10 10 10 11 11 12 15 13 11 11 10 9 11 9 7 8 7 6 15 13 6 5 6 6 7
9 8 7 7 6 6 6 6 6 7 8 8 9 9 9 10 11 13 12 12 11 11 12 10 10 8 8 9 10 9 7 5 13 18 16 11 5 6
9 8 7 6 6 5 5 6 7 7 8 8 9 9 9 10 11 11 11 11 11 11 11 10 9 7 8 9 10 9 9 7 5 7 10 15 18 16
Wind_Direction
224 227 233 241 243 247 251 255 266 280 284 288 290 288 287 284 281 280 278 278 278 279 280 281 282 282 283 284 286 287 289 291 293 296 298 300 297 285
222 228 232 238 243 246 249 252 253 261 274 281 286 287 287 283 281 279 278 279 279 278 279 279 280 280 280 281 282 283 285 286 288 292 296 299 300 295
220 226 233 237 243 247 249 250 252 254 264 276 281 285 285 283 281 278 277 277 277 276 276 277 278 279 279 279 279 279 280 282 284 288 292 297 299 300
221 225 232 234 240 246 249 252 254 255 261 273 280 283 283 282 281 280 278 276 275 276 276 277 278 278 279 278 277 276 277 278 280 283 287 293 298 302
220 224 230 233 241 245 249 253 255 258 260 267 275 280 281 280 281 279 277 275 274 274 276 276 276 277 278 277 275 274 273 274 275 278 281 286 291 296
222 226 231 232 239 246 251 254 257 260 262 265 272 277 280 281 280 280 280 277 276 276 276 275 276 277 277 276 273 271 270 271 271 273 275 279 285 290
223 228 233 235 239 244 246 252 254 258 264 269 274 280 283 285 285 285 283 284 281 278 278 276 275 273 275 273 270 268 266 266 266 268 270 272 277 283
224 229 235 241 246 250 255 259 261 265 271 277 281 283 286 289 291 289 287 286 285 281 278 277 273 272 272 270 269 268 265 264 263 263 264 266 269 275
223 229 234 237 243 245 257 265 271 273 273 275 278 282 288 290 290 288 283 282 282 285 285 278 273 272 272 269 269 267 265 262 260 259 259 261 262 266
225 229 237 241 241 245 252 260 263 264 266 268 270 275 279 282 281 284 289 288 284 280 274 273 274 273 274 272 271 266 264 260 256 254 253 254 256 260
229 232 238 245 250 253 257 263 269 269 272 274 276 279 283 288 291 292 290 288 287 285 279 273 275 277 278 276 270 267 262 256 251 247 246 246 248 252
229 232 237 242 249 254 257 265 272 279 284 286 284 283 283 285 286 281 281 282 282 285 282 271 272 278 281 274 273 279 272 259 248 241 238 238 239 242
225 229 232 239 248 256 261 266 274 284 289 289 289 288 287 283 281 277 271 270 274 273 274 275 274 273 270 280 290 289 281 271 253 238 231 230 230 229
224 229 232 239 249 259 265 271 281 290 290 289 290 291 293 294 293 289 281 273 266 268 271 268 267 268 272 276 281 286 290 280 263 239 225 218 222 225
225 230 236 244 255 264 269 277 284 285 284 286 288 291 295 295 294 291 285 275 268 264 261 256 254 257 258 264 271 278 289 288 283 254 226 214 209 209
230 233 238 247 254 261 269 274 271 272 280 284 288 292 295 297 296 296 295 293 287 281 264 252 249 249 252 256 261 267 270 274 285 289 265 231 215 209
209 213 221 231 242 247 254 262 268 274 280 283 289 294 298 300 300 300 296 292 288 288 287 272 251 245 246 252 256 257 259 260 260 267 260 229 215 210
200 211 221 229 239 247 257 265 271 276 283 288 291 294 298 301 302 302 299 294 291 289 287 284 273 260 245 244 235 248 251 253 252 248 243 228 213 209
206 215 223 229 236 243 252 263 273 281 287 287 289 294 298 300 303 304 303 300 296 292 288 281 268 256 254 261 237 215 228 240 234 231 229 226 217 208
209 217 223 227 232 239 248 260 273 283 285 287 291 295 298 301 304 305 305 303 300 297 292 283 266 253 251 265 283 248 214 227 232 223 220 225 237 231
207 215 220 223 227 235 245 258 271 280 286 291 293 297 300 302 303 305 305 304 303 297 294 289 281 274 268 266 265 260 236 215 224 230 214 211 214 205
206 211 214 218 223 230 242 256 269 279 287 291 296 301 303 304 304 305 306 306 303 298 295 291 285 269 245 240 249 258 258 230 219 234 254 261 231 199
205 206 209 211 218 226 238 252 266 279 288 295 298 302 305 306 306 306 307 306 304 302 301 298 292 272 249 244 249 254 255 245 218 210 232 245 254 269
Height
1462 1462 1461 1460 1459 1458 1456 1454 1452 1444 1438 1435 1434 1430 1426 1421 1416 1411 1406 1401 1398 1394 1391 1388 1384 1381 1379 1376 1373 1369 1365 1361 1357 1353 1348 1344 1344 1345
1453 1453 1452 1451 1451 1449 1447 1445 1442 1438 1430 1424 1423 1421 1417 1412 1408 1403 1398 1393 1389 1385 1381 1377 1374 1371 1368 1365 1363 1360 1356 1354 1350 1346 1341 1337 1335 1336
1443 1443 1443 1443 1442 1440 1438 1436 1433 1430 1423 1415 1414 1411 1407 1403 1398 1394 1389 1384 1378 1374 1370 1366 1363 1359 1356 1354 1351 1349 1347 1345 1342 1338 1335 1332 1329 1328
1433 1433 1434 1434 1432 1431 1429 1426 1424 1421 1417 1409 1404 1401 1398 1394 1389 1384 1379 1374 1369 1364 1359 1355 1351 1347 1344 1342 1340 1338 1337 1335 1334 1331 1329 1325 1322 1321
1423 1424 1424 1424 1423 1422 1420 1417 1415 1412 1408 1402 1395 1392 1388 1384 1379 1373 1369 1364 1358 1353 1348 1344 1339 1335 1332 1330 1328 1327 1326 1325 1324 1323 1322 1319 1318 1316
1413 1414 1414 1414 1413 1412 1410 1408 1406 1403 1399 1394 1388 1383 1378 1374 1370 1364 1357 1353 1348 1343 1338 1333 1329 1324 1320 1318 1316 1315 1314 1314 1315 1315 1315 1314 1313 1312
1403 1404 1405 1404 1404 1402 1400 1398 1397 1394 1391 1386 1380 1375 1370 1366 1361 1355 1349 1343 1337 1334 1328 1323 1319 1314 1310 1307 1305 1304 1304 1304 1305 1306 1307 1308 1308 1308
1393 1394 1395 1395 1394 1393 1392 1391 1390 1387 1383 1379 1373 1368 1362 1358 1353 1347 1341 1334 1325 1325 1319 1313 1310 1304 1301 1298 1295 1294 1294 1294 1295 1297 1299 1301 1303 1303
1384 1385 1385 1385 1385 1383 1382 1380 1379 1377 1375 1371 1365 1359 1354 1349 1344 1337 1331 1324 1317 1313 1310 1302 1299 1294 1291 1287 1285 1284 1283 1284 1285 1287 1290 1293 1296 1297
1375 1376 1376 1376 1376 1375 1373 1370 1367 1365 1363 1361 1356 1350 1345 1340 1335 1329 1322 1314 1307 1304 1300 1293 1289 1286 1282 1278 1275 1274 1273 1274 1275 1278 1281 1285 1288 1291
1366 1367 1368 1368 1368 1367 1365 1362 1360 1357 1355 1352 1347 1342 1337 1332 1327 1321 1313 1307 1298 1294 1292 1287 1281 1278 1273 1269 1266 1265 1264 1264 1266 1269 1273 1277 1282 1285
1358 1358 1359 1360 1359 1359 1358 1356 1352 1349 1346 1342 1337 1332 1327 1321 1317 1312 1306 1300 1292 1286 1283 1280 1275 1272 1266 1262 1260 1258 1256 1256 1257 1261 1265 1270 1276 1280
1349 1350 1351 1352 1352 1351 1351 1349 1345 1343 1339 1334 1329 1324 1319 1313 1308 1303 1297 1292 1285 1279 1276 1274 1270 1267 1264 1258 1254 1252 1251 1250 1251 1254 1258 1263 1269 1274
1342 1343 1344 1345 1344 1344 1343 1341 1339 1336 1332 1327 1322 1317 1312 1306 1300 1294 1288 1282 1277 1271 1268 1266 1263 1261 1258 1254 1250 1247 1246 1245 1246 1248 1252 1257 1263 1268
1335 1337 1338 1338 1338 1337 1335 1334 1332 1329 1325 1321 1316 1311 1305 1299 1292 1286 1279 1274 1268 1263 1259 1257 1255 1253 1252 1249 1246 1244 1242 1241 1242 1244 1248 1253 1258 1263
1330 1331 1332 1332 1331 1330 1329 1327 1325 1322 1319 1315 1310 1304 1299 1293 1287 1280 1274 1268 1262 1256 1253 1250 1248 1247 1245 1243 1242 1240 1239 1239 1239 1241 1244 1248 1253 1258
1323 1325 1325 1325 1325 1324 1322 1321 1319 1316 1313 1309 1304 1299 1294 1288 1281 1275 1269 1263 1257 1252 1248 1245 1242 1240 1239 1238 1236 1235 1234 1235 1236 1238 1242 1246 1250 1254
1318 1318 1319 1319 1319 1318 1317 1315 1314 1311 1308 1304 1299 1294 1289 1283 1276 1270 1264 1259 1253 1248 1243 1240 1238 1236 1235 1231 1230 1229 1230 1231 1233 1236 1239 1243 1247 1252
1311 1312 1313 1313 1313 1312 1311 1310 1308 1306 1302 1299 1294 1290 1284 1278 1272 1266 1260 1254 1249 1244 1239 1236 1234 1233 1232 1230 1227 1226 1226 1228 1231 1234 1237 1240 1245 1249
1305 1307 1307 1308 1308 1307 1306 1305 1303 1301 1298 1294 1290 1285 1280 1275 1268 1262 1256 1250 1245 1239 1235 1232 1230 1228 1227 1227 1226 1224 1224 1225 1228 1231 1234 1238 1243 1247
1299 1301 1302 1303 1302 1302 1301 1300 1298 1296 1293 1289 1285 1281 1276 1271 1264 1258 1252 1246 1241 1236 1231 1227 1225 1224 1222 1222 1221 1219 1221 1223 1225 1228 1233 1237 1241 1244
1294 1296 1297 1298 1298 1297 1297 1296 1294 1292 1289 1285 1281 1277 1272 1267 1261 1255 1249 1243 1237 1232 1227 1223 1220 1218 1218 1217 1216 1216 1218 1220 1222 1225 1229 1233 1237 1242
1290 1291 1292 1293 1293 1293 1292 1291 1290 1288 1285 1282 1278 1273 1268 1263 1257 1251 1245 1239 1234 1228 1224 1219 1216 1215 1213 1213 1212 1213 1215 1217 1219 1222 1225 1229 1233 1237